Location: ??????????
(54.4061°N, 22.6114°E)
Time: 02:14:42
(UTC+00:00)

CENTAUR R/B - Pass Details

Date: 23 October 2019
Orbit: 781 x 1407 km, 63.4° (Epoch: 10 November)

Event Time Altitude Azimuth Distance (km) Brightness Sun altitude
Rises 18:49:56 0° 233° (SW) 3,544 5.8 -31.4°
Reaches altitude 10° 18:52:17 10° 235° (SW) 2,678 5.1 -31.7°
Enters shadow 18:58:27 79° 303° (WNW) 1,089 2.7 -32.5°
